This is the latest recevied weather packets stored in our database for station/object N9EA. If no packets are shown the sender has not sent any weather packets the latest 10 day(s).
| Time | Temp. | Humidity | Pressure | Rain* | Wind** | Luminosity | Snow |
|---|---|---|---|---|---|---|---|
| 1778198208 | 17.22° C | 47% | 1008.8 hPa | 0 mm | - | 56 W/m² | - |
| 1778197906 | 17.22° C | 46% | 1008.8 hPa | 0 mm | - | 50 W/m² | - |
| 1778197603 | 17.22° C | 46% | 1009 hPa | 0 mm | - | 60 W/m² | - |
| 1778197299 | 17.78° C | 45% | 1008.9 hPa | 0 mm | - | 61 W/m² | - |
| 1778196996 | 17.78° C | 44% | 1009 hPa | 0 mm | - | 84 W/m² | - |
| 1778196694 | 17.22° C | 45% | 1008.9 hPa | 0 mm | - | 105 W/m² | - |
| 1778196390 | 17.22° C | 45% | 1009 hPa | 0 mm | - | 53 W/m² | - |
| 1778196088 | 17.22° C | 44% | 1009 hPa | 0 mm | - | 53 W/m² | - |
| 1778195784 | 17.78° C | 43% | 1008.9 hPa | 0 mm | - | 43 W/m² | - |
| 1778195481 | 18.89° C | 42% | 1008.8 hPa | 0 mm | - | 87 W/m² | - |
| 1778195177 | 18.89° C | 41% | 1008.8 hPa | 0 mm | - | 184 W/m² | - |
| 1778194875 | 18.89° C | 41% | 1008.9 hPa | 0 mm | - | 214 W/m² | - |
| 1778194569 | 18.89° C | 41% | 1009.1 hPa | 0 mm | - | 171 W/m² | - |
| 1778194266 | 18.89° C | 40% | 1009 hPa | 0 mm | - | 157 W/m² | - |
| 1778193962 | 18.89° C | 40% | 1009 hPa | 0 mm | - | 219 W/m² | - |
| 1778193659 | 18.89° C | 39% | 1008.9 hPa | 0 mm | - | 144 W/m² | - |
| 1778193355 | 18.33° C | 40% | 1009.1 hPa | 0 mm | - | 260 W/m² | - |
| 1778193052 | 17.78° C | 41% | 1009.2 hPa | 0 mm | - | 273 W/m² | - |
| 1778192749 | 18.33° C | 40% | 1009.4 hPa | 0 mm | - | 192 W/m² | - |
| 1778192445 | 18.33° C | 41% | 1009.3 hPa | 0 mm | - | 77 W/m² | - |
| 1778192142 | 18.33° C | 41% | 1009.2 hPa | 0 mm | - | 123 W/m² | - |
| 1778191839 | 17.78° C | 41% | 1009.4 hPa | 0 mm | - | 121 W/m² | - |
| 1778191536 | 17.78° C | 41% | 1009.3 hPa | 0 mm | - | 81 W/m² | - |
| 1778191233 | 17.78° C | 43% | 1009.2 hPa | 0 mm | - | 85 W/m² | - |
| 1778190929 | 17.78° C | 43% | 1009.3 hPa | 0 mm | - | 67 W/m² | - |
* Rain latest hour (hover to see other rain measurements)
** Current wind speed in m/s (hover to see current wind gust speed)